Location: Columbus
(29.5618°N, 96.6770°W)
Time: 19:59:17
(UTC-05:00)

Iridium 59 - Visible Passes

Search period start: 04 May 2016 00:00
Search period end: 14 May 2016 00:00
Orbit: 776 x 779 km, 86.4° (Epoch: 04 May)

Date Brightness Start Highest point End Pass type
(mag) Time Alt. Az. Time Alt. Az. Time Alt. Az.
04 May 7.8 03:38:22 10° NE 03:40:22 12° E 03:42:21 10° ESE visible
04 May 5.1 05:16:15 10° NNW 05:21:20 53° W 05:25:17 16° SSW visible
05 May 5.1 04:42:39 10° N 04:47:52 76° E 04:51:09 23° S visible
06 May 6.3 04:09:29 10° NNE 04:14:18 37° E 04:17:06 21° SE visible
06 May 6.5 05:51:15 10° NW 05:54:38 18° W 05:57:31 12° WSW visible
07 May 7.3 03:37:00 10° NE 03:40:37 19° E 03:43:06 14° ESE visible
07 May 5.7 05:16:39 10° NNW 05:21:21 35° W 05:23:32 24° SW visible
08 May 4.9 04:42:45 10° N 04:47:57 71° W 04:49:36 43° SSW visible
09 May 5.5 04:09:19 10° N 04:14:27 57° E 04:15:42 45° SE visible
09 May 6.9 05:53:01 10° WNW 05:54:33 11° W 05:56:05 10° W visible
10 May 6.6 03:36:23 10° NNE 03:40:51 28° E 03:41:51 26° ESE visible
10 May 6.2 05:17:17 10° NNW 05:21:19 23° W 05:22:17 22° W visible
11 May 7.5 03:04:23 10° NE 03:07:07 14° E 03:08:02 14° E visible
11 May 5.3 04:43:01 10° NNW 04:48:00 46° W 04:48:29 45° WSW visible
12 May 4.9 04:09:19 10° N 04:14:33 87° E 04:14:41 85° SE visible
13 May 5.9 03:36:04 10° NNE 03:40:56 43° E 03:40:56 43° E visible
13 May 6.7 05:18:20 10° NW 05:21:16 15° W 05:21:22 15° W visible
